Active alerts


No alerts


weather webcam more information weather webcam


Thunder radar more information blitzortung!


Rain radar more information rain snow radar


Visit our other weather sites:

Template documentation
and downloads

And another site


Weather Underground History page Text

Daily Summary for October 21, 2018 Units:  English    Metric   Both
« Previous Day
Next Day »
Daily Weekly Monthly Yearly Custom
  Current: High: Low: Average:
Temperature: 34.5 °F TemperatureF °F 24.5 °F 39 °F
Dew Point: 31.6 °F DewpointF °F 22.2 °F 28.8 °F
Humidity: 89 % Humidity % 40 % 70 %
Wind Speed: 0 mph WindSpeedMPH mph 0 mph 2.1 mph
Wind Gust: 0 mph WindSpeedGustMPH mph - -
Wind:Calm - - SSW
Pressure: 30.05 in PressureIn in 30.00 in -
Precipitation: 0 in      
Historical Graphs
 
 
Tabular Data for October 21, 2018
Time Temperature Dew Point Pressure Wind Wind Speed Wind Gust Humidity Rainfall Rate (Hourly)
TemperatureF °F DewpointF °F PressureIn in Calm     Humidity % HourlyPrecipIn in
00:04 28.2 °F 24 °F 30.36 in Calm     84 % 0 in
00:09 28.1 °F 23.6 °F 30.36 in Calm     83 % 0 in
00:14 28 °F 23.8 °F 30.36 in Calm     84 % 0 in
00:19 27.9 °F 23.7 °F 30.36 in Calm     84 % 0 in
00:24 27.8 °F 23.6 °F 30.36 in Calm     84 % 0 in
00:29 27.7 °F 23.5 °F 30.35 in Calm     84 % 0 in
00:34 27.5 °F 23.6 °F 30.35 in Calm     85 % 0 in
00:40 27.5 °F 23.6 °F 30.35 in Calm     85 % 0 in
00:44 27.5 °F 23.9 °F 30.36 in Calm     86 % 0 in
00:49 27.5 °F 23.9 °F 30.36 in Calm     86 % 0 in
00:54 27.5 °F 23.6 °F 30.36 in Calm     85 % 0 in
00:59 27.5 °F 23.6 °F 30.37 in Calm     85 % 0 in
01:04 27.5 °F 23.6 °F 30.37 in Calm     85 % 0 in
01:09 27.5 °F 23.9 °F 30.37 in Calm     86 % 0 in
01:14 27.4 °F 23.8 °F 30.36 in Calm     86 % 0 in
01:19 27.3 °F 23.7 °F 30.36 in Calm     86 % 0 in
01:25 27.3 °F 23.7 °F 30.36 in Calm     86 % 0 in
01:29 27.3 °F 23.9 °F 30.36 in Calm     87 % 0 in
01:34 27.2 °F 23.8 °F 30.36 in Calm     87 % 0 in
01:39 27.2 °F 23.8 °F 30.36 in Calm     87 % 0 in
01:44 27.1 °F 23.7 °F 30.36 in Calm     87 % 0 in
01:49 27.1 °F 23.7 °F 30.36 in Calm     87 % 0 in
01:54 27 °F 23.6 °F 30.36 in Calm     87 % 0 in
01:59 26.9 °F 23.5 °F 30.36 in Calm     87 % 0 in
02:04 26.8 °F 23.4 °F 30.36 in Calm     87 % 0 in
02:10 26.7 °F 23.4 °F 30.36 in Calm     87 % 0 in
02:14 26.7 °F 23.4 °F 30.36 in Calm     87 % 0 in
02:19 26.6 °F 23.5 °F 30.36 in Calm     88 % 0 in
02:24 26.6 °F 23.5 °F 30.36 in Calm     88 % 0 in
02:29 26.6 °F 23.5 °F 30.36 in Calm     88 % 0 in
02:34 26.5 °F 23.7 °F 30.36 in Calm     89 % 0 in
02:39 26.5 °F 23.7 °F 30.35 in Calm     89 % 0 in
02:44 26.4 °F 23.3 °F 30.34 in Calm     88 % 0 in
02:49 26.3 °F 23.2 °F 30.34 in Calm     88 % 0 in
02:55 26.2 °F 23.4 °F 30.34 in Calm     89 % 0 in
02:59 26.1 °F 23.3 °F 30.34 in Calm     89 % 0 in
03:04 26.1 °F 23.3 °F 30.33 in Calm     89 % 0 in
03:09 25.9 °F 23.1 °F 30.33 in Calm     89 % 0 in
03:14 25.8 °F 23 °F 30.33 in Calm     89 % 0 in
03:19 25.7 °F 22.9 °F 30.32 in Calm     89 % 0 in
03:24 25.7 °F 23.2 °F 30.32 in Calm     90 % 0 in
03:29 25.7 °F 23.2 °F 30.32 in Calm     90 % 0 in
03:34 25.6 °F 23.1 °F 30.32 in Calm     90 % 0 in
03:40 25.6 °F 23.1 °F 30.32 in Calm     90 % 0 in
03:44 25.5 °F 23 °F 30.32 in Calm     90 % 0 in
03:49 25.5 °F 23 °F 30.32 in Calm     90 % 0 in
03:54 25.4 °F 22.9 °F 30.31 in Calm     90 % 0 in
03:59 25.3 °F 22.5 °F 30.31 in Calm     89 % 0 in
04:04 25.2 °F 22.7 °F 30.31 in Calm     90 % 0 in
04:09 25.2 °F 22.7 °F 30.31 in Calm     90 % 0 in
04:14 25.3 °F 22.8 °F 30.32 in Calm     90 % 0 in
04:19 25.3 °F 22.8 °F 30.32 in Calm     90 % 0 in
04:25 25.3 °F 22.8 °F 30.31 in Calm     90 % 0 in
04:29 25.3 °F 22.8 °F 30.31 in Calm     90 % 0 in
04:34 25.2 °F 22.7 °F 30.30 in Calm     90 % 0 in
04:39 25.1 °F 22.6 °F 30.30 in Calm     90 % 0 in
04:44 25 °F 22.5 °F 30.31 in Calm     90 % 0 in
04:49 25.1 °F 22.6 °F 30.30 in Calm     90 % 0 in
04:54 25.1 °F 22.6 °F 30.30 in Calm     90 % 0 in
04:59 25 °F 22.5 °F 30.29 in Calm     90 % 0 in
05:04 24.9 °F 22.4 °F 30.30 in Calm     90 % 0 in
05:10 24.9 °F 22.6 °F 30.29 in Calm     91 % 0 in
05:14 24.9 °F 22.6 °F 30.29 in Calm     91 % 0 in
05:19 24.9 °F 22.6 °F 30.29 in Calm     91 % 0 in
05:24 24.9 °F 22.6 °F 30.29 in Calm     91 % 0 in
05:29 24.9 °F 22.6 °F 30.29 in Calm     91 % 0 in
05:34 24.9 °F 22.6 °F 30.29 in Calm     91 % 0 in
05:39 24.9 °F 22.6 °F 30.29 in Calm     91 % 0 in
05:44 24.8 °F 22.5 °F 30.29 in Calm     91 % 0 in
05:49 24.7 °F 22.4 °F 30.29 in Calm   1 mph 91 % 0 in
05:55 24.6 °F 22.3 °F 30.29 in Calm   2 mph 91 % 0 in
05:59 24.6 °F 22.3 °F 30.29 in Calm   2 mph 91 % 0 in
06:04 24.6 °F 22.3 °F 30.29 in Calm   1 mph 91 % 0 in
06:09 24.6 °F 22.3 °F 30.29 in Calm   1 mph 91 % 0 in
06:14 24.6 °F 22.3 °F 30.29 in Calm     91 % 0 in
06:19 24.6 °F 22.3 °F 30.28 in Calm     91 % 0 in
06:24 24.6 °F 22.3 °F 30.28 in Calm     91 % 0 in
06:29 24.5 °F 22.2 °F 30.28 in Calm     91 % 0 in
06:34 24.5 °F 22.2 °F 30.27 in Calm     91 % 0 in
06:40 24.6 °F 22.3 °F 30.27 in Calm     91 % 0 in
06:44 24.6 °F 22.3 °F 30.27 in Calm     91 % 0 in
06:49 24.6 °F 22.3 °F 30.27 in Calm   2 mph 91 % 0 in
06:54 24.6 °F 22.3 °F 30.27 in Calm   2 mph 91 % 0 in
06:59 24.7 °F 22.4 °F 30.27 in Calm     91 % 0 in
07:04 24.7 °F 22.4 °F 30.27 in Calm   3 mph 91 % 0 in
07:09 24.7 °F 22.4 °F 30.27 in Calm   3 mph 91 % 0 in
07:14 24.7 °F 22.4 °F 30.27 in Calm   2 mph 91 % 0 in
07:19 24.7 °F 22.4 °F 30.26 in Calm   2 mph 91 % 0 in
07:25 24.7 °F 22.4 °F 30.26 in South 2 mph 2 mph 91 % 0 in
07:29 24.7 °F 22.4 °F 30.26 in SSE 2 mph 4 mph 91 % 0 in
07:34 24.8 °F 22.5 °F 30.26 in SSE 1 mph 4 mph 91 % 0 in
07:39 24.9 °F 22.6 °F 30.25 in SSW 4 mph 4 mph 91 % 0 in
07:44 25.3 °F 23 °F 30.25 in South 1 mph 6 mph 91 % 0 in
07:49 25.7 °F 23.2 °F 30.25 in South 2 mph 6 mph 90 % 0 in
07:54 26.1 °F 23.6 °F 30.24 in SSW 1 mph 6 mph 90 % 0 in
07:59 26.4 °F 23.6 °F 30.24 in SSW 2 mph 9 mph 89 % 0 in
08:04 27.1 °F 24 °F 30.24 in SSW 4 mph 9 mph 88 % 0 in
08:10 27.6 °F 24 °F 30.24 in South 1 mph 7 mph 86 % 0 in
08:14 28.2 °F 24 °F 30.24 in South 3 mph 7 mph 84 % 0 in
08:19 28.6 °F 24.1 °F 30.24 in Calm   7 mph 83 % 0 in
08:24 28.9 °F 24.4 °F 30.24 in South 2 mph 7 mph 83 % 0 in
08:29 29.1 °F 24.3 °F 30.23 in South 3 mph 6 mph 82 % 0 in
08:34 29.5 °F 24.4 °F 30.23 in SSE 1 mph 7 mph 81 % 0 in
08:39 29.9 °F 24.5 °F 30.23 in SSE 4 mph 7 mph 80 % 0 in
08:44 30.4 °F 24.7 °F 30.23 in SE 3 mph 7 mph 79 % 0 in
08:49 30.9 °F 24.8 °F 30.22 in South 4 mph 8 mph 78 % 0 in
08:55 31.5 °F 24.8 °F 30.21 in SSW 9 mph 11 mph 76 % 0 in
08:59 32.1 °F 25.1 °F 30.21 in SSW 5 mph 11 mph 75 % 0 in
09:04 32.8 °F 25.1 °F 30.21 in South 6 mph 10 mph 73 % 0 in
09:09 33.6 °F 25.2 °F 30.21 in South 12 mph 12 mph 71 % 0 in
09:14 34.4 °F 24.9 °F 30.20 in SE 1 mph 15 mph 68 % 0 in
09:19 35.1 °F 25.2 °F 30.19 in SSE 1 mph 15 mph 67 % 0 in
09:24 35.7 °F 25.4 °F 30.18 in SW 7 mph 15 mph 66 % 0 in
09:29 36.3 °F 25.3 °F 30.18 in SSW 3 mph 16 mph 64 % 0 in
09:34 36.7 °F 25.7 °F 30.18 in SSE 11 mph 16 mph 64 % 0 in
09:39 37.1 °F 25.7 °F 30.18 in South 5 mph 16 mph 63 % 0 in
09:44 37.4 °F 25.6 °F 30.18 in SSE 10 mph 16 mph 62 % 0 in
09:49 37.8 °F 25.5 °F 30.17 in South 8 mph 16 mph 61 % 0 in
09:54 38.2 °F 25.1 °F 30.17 in SSE 7 mph 17 mph 59 % 0 in
09:59 38.7 °F 26 °F 30.17 in South 13 mph 18 mph 60 % 0 in
10:04 39.1 °F 26 °F 30.16 in SW 4 mph 18 mph 59 % 0 in
10:09 39.4 °F 26.2 °F 30.16 in South 10 mph 18 mph 59 % 0 in
10:14 39.8 °F 26.2 °F 30.15 in South 15 mph 21 mph 58 % 0 in
10:19 40.2 °F 26.6 °F 30.15 in SSW 8 mph 21 mph 58 % 0 in
10:25 40.5 °F 26 °F 30.15 in South 3 mph 19 mph 56 % 0 in
10:29 40.7 °F 26.2 °F 30.15 in South 3 mph 20 mph 56 % 0 in
10:34 41.1 °F 27.4 °F 30.14 in South 10 mph 20 mph 58 % 0 in
10:39 41.4 °F 26.9 °F 30.14 in SW 4 mph 17 mph 56 % 0 in
10:44 41.8 °F 27.2 °F 30.13 in SSE 4 mph 17 mph 56 % 0 in
10:49 42.2 °F 27.2 °F 30.13 in South 15 mph 21 mph 55 % 0 in
10:54 42.5 °F 27.9 °F 30.13 in South 9 mph 21 mph 56 % 0 in
10:59 42.9 °F 27.8 °F 30.11 in SW 4 mph 15 mph 55 % 0 in
11:04 43.5 °F 27.9 °F 30.11 in SSW 5 mph 14 mph 54 % 0 in
11:10 44 °F 28.4 °F 30.10 in South 5 mph 14 mph 54 % 0 in
11:15 44.5 °F 28 °F 30.09 in South 1 mph 15 mph 52 % 0 in
11:19 45 °F 27.9 °F 30.09 in South 7 mph 18 mph 51 % 0 in
11:24 45.4 °F 27.8 °F 30.08 in South 8 mph 19 mph 50 % 0 in
11:29 45.8 °F 28.7 °F 30.09 in SW 6 mph 19 mph 51 % 0 in
11:34 46.2 °F 28.6 °F 30.10 in SSW 15 mph 18 mph 50 % 0 in
11:39 46.4 °F 28.3 °F 30.09 in SW 14 mph 27 mph 49 % 0 in
11:44 46.8 °F 28.6 °F 30.10 in SSW 5 mph 27 mph 49 % 0 in
11:49 47.1 °F 28.9 °F 30.10 in SW 4 mph 19 mph 49 % 0 in
11:54 47.5 °F 28.8 °F 30.10 in SSE 4 mph 15 mph 48 % 0 in
11:59 47.8 °F 29.5 °F 30.09 in SW 3 mph 15 mph 49 % 0 in
12:04 48.3 °F 29 °F 30.09 in WSW 9 mph 18 mph 47 % 0 in
12:09 48.6 °F 29.8 °F 30.09 in SSE 4 mph 19 mph 48 % 0 in
12:14 49 °F 30.1 °F 30.09 in WSW 8 mph 19 mph 48 % 0 in
12:19 49.4 °F 29.5 °F 30.08 in SW 6 mph 11 mph 46 % 0 in
12:24 49.6 °F 29.1 °F 30.08 in SSE 14 mph 17 mph 45 % 0 in
12:29 49.7 °F 29.2 °F 30.08 in SSW 6 mph 17 mph 45 % 0 in
12:34 49.8 °F 29.3 °F 30.09 in SW 9 mph 16 mph 45 % 0 in
12:39 49.8 °F 29.3 °F 30.08 in West 3 mph 16 mph 45 % 0 in
12:44 50 °F 29.5 °F 30.08 in South 3 mph 13 mph 45 % 0 in
12:49 50.4 °F 30.4 °F 30.08 in West 4 mph 14 mph 46 % 0 in
12:54 50.5 °F 30.5 °F 30.07 in SW 6 mph 14 mph 46 % 0 in
12:59 50.9 °F 29.7 °F 30.07 in SSW 8 mph 13 mph 44 % 0 in
13:04 51 °F 30.4 °F 30.07 in WSW 4 mph 14 mph 45 % 0 in
13:09 51.5 °F 31.9 °F 30.07 in WSW 4 mph 14 mph 47 % 0 in
13:14 52 °F 31.3 °F 30.07 in Calm   12 mph 45 % 0 in
13:19 52.3 °F 31 °F 30.06 in SSW 6 mph 12 mph 44 % 0 in
13:24 52.4 °F 30.5 °F 30.06 in SSE 4 mph 12 mph 43 % 0 in
13:29 52.7 °F 31.9 °F 30.06 in West 9 mph 12 mph 45 % 0 in
13:34 52.9 °F 31.6 °F 30.06 in WSW 7 mph 11 mph 44 % 0 in
13:39 53.1 °F 32.3 °F 30.05 in SW 8 mph 11 mph 45 % 0 in
13:44 53.4 °F 32.6 °F 30.05 in SW 6 mph 11 mph 45 % 0 in
13:49 53.6 °F 31.6 °F 30.05 in SW 3 mph 11 mph 43 % 0 in
13:54 53.6 °F 31.6 °F 30.05 in SW 5 mph 11 mph 43 % 0 in
13:59 53.9 °F 31.3 °F 30.05 in WSW 5 mph 11 mph 42 % 0 in
14:04 54.1 °F 32.6 °F 30.05 in West 3 mph 12 mph 44 % 0 in
14:09 54.3 °F 31.7 °F 30.04 in SW 7 mph 16 mph 42 % 0 in
14:14 54.3 °F 32.3 °F 30.04 in SW 2 mph 16 mph 43 % 0 in
14:19 54.6 °F 32.5 °F 30.04 in SSE 5 mph 13 mph 43 % 0 in
14:24 54.8 °F 33.3 °F 30.03 in SSW 1 mph 16 mph 44 % 0 in
14:29 55.3 °F 32.6 °F 30.03 in WSW 7 mph 16 mph 42 % 0 in
14:34 55.7 °F 32.3 °F 30.03 in WSW 2 mph 10 mph 41 % 0 in
14:39 55.9 °F 33.7 °F 30.03 in South 4 mph 10 mph 43 % 0 in
14:44 56.1 °F 32.7 °F 30.03 in West 3 mph 12 mph 41 % 0 in
14:49 56.3 °F 33.5 °F 30.02 in SSW 5 mph 12 mph 42 % 0 in
14:54 56.3 °F 32.3 °F 30.02 in South 6 mph 13 mph 40 % 0 in
14:59 56.3 °F 34.1 °F 30.02 in SSW 3 mph 14 mph 43 % 0 in
15:04 56.6 °F 33.8 °F 30.02 in SSW 8 mph 14 mph 42 % 0 in
15:09 56.7 °F 33.8 °F 30.02 in WSW 8 mph 12 mph 42 % 0 in
15:14 56.9 °F 33.4 °F 30.01 in WSW 4 mph 11 mph 41 % 0 in
15:19 57.1 °F 33.6 °F 30.01 in South 3 mph 12 mph 41 % 0 in
15:24 57.4 °F 34.5 °F 30.01 in SW 3 mph 12 mph 42 % 0 in
15:29 57.6 °F 33.4 °F 30.00 in SSW 5 mph 13 mph 40 % 0 in
15:34 57.7 °F 34.1 °F 30.00 in WSW 4 mph 13 mph 41 % 0 in
15:39 57.8 °F 34.2 °F 30.00 in WSW 4 mph 9 mph 41 % 0 in
15:44 58 °F 34.4 °F 30.00 in WSW 1 mph 8 mph 41 % 0 in
15:49 58 °F 34.4 °F 30.00 in South 2 mph 9 mph 41 % 0 in
15:54 57.9 °F 34.3 °F 30.00 in West 1 mph 11 mph 41 % 0 in
15:59 57.9 °F 34.3 °F 30.00 in SSW 2 mph 11 mph 41 % 0 in
16:04 57.9 °F 34.3 °F 30.00 in Calm   9 mph 41 % 0 in
16:09 58 °F 34.4 °F 30.00 in West 1 mph 8 mph 41 % 0 in
16:14 58.1 °F 34.5 °F 30.00 in SW 5 mph 8 mph 41 % 0 in
16:19 58.4 °F 35.4 °F 30.00 in Calm   7 mph 42 % 0 in
16:24 58.5 °F 34.9 °F 30.00 in SSW 2 mph 8 mph 41 % 0 in
16:29 58.5 °F 34.9 °F 30.00 in SSW 4 mph 8 mph 41 % 0 in
16:34 58.4 °F 34.8 °F 30.00 in SW 3 mph 7 mph 41 % 0 in
16:39 58.5 °F 35.5 °F 30.00 in West 6 mph 9 mph 42 % 0 in
16:44 58.6 °F 35.6 °F 30.00 in WSW 3 mph 9 mph 42 % 0 in
16:49 58.3 °F 35.9 °F 30.00 in West 3 mph 9 mph 43 % 0 in
16:54 58.1 °F 35.1 °F 30.00 in SW 4 mph 9 mph 42 % 0 in
16:59 57.9 °F 36.1 °F 30.00 in West 4 mph 9 mph 44 % 0 in
17:04 57.7 °F 35.3 °F 30.00 in WSW 7 mph 11 mph 43 % 0 in
17:09 57.6 °F 36.4 °F 30.00 in WNW 3 mph 11 mph 45 % 0 in
17:14 57.4 °F 35.6 °F 30.00 in West 4 mph 9 mph 44 % 0 in
17:19 57.2 °F 35.5 °F 30.00 in WSW 5 mph 9 mph 44 % 0 in
17:24 57.1 °F 35.4 °F 30.00 in WSW 4 mph 8 mph 44 % 0 in
17:29 57 °F 35.3 °F 30.00 in West 1 mph 8 mph 44 % 0 in
17:34 56.8 °F 35.7 °F 30.00 in Calm   6 mph 45 % 0 in
17:39 56.6 °F 36 °F 30.00 in WNW 2 mph 4 mph 46 % 0 in
17:44 56.4 °F 35.9 °F 30.00 in WSW 2 mph 7 mph 46 % 0 in
17:49 56.2 °F 35.7 °F 30.00 in WSW 1 mph 7 mph 46 % 0 in
17:54 56 °F 36 °F 30.00 in Calm   7 mph 47 % 0 in
17:59 55.7 °F 35.8 °F 30.00 in Calm   6 mph 47 % 0 in
18:04 55.4 °F 36 °F 30.00 in WNW 2 mph 4 mph 48 % 0 in
18:09 55 °F 36.2 °F 30.00 in Calm   2 mph 49 % 0 in
18:14 54.6 °F 35.8 °F 30.00 in Calm   2 mph 49 % 0 in
18:19 54 °F 35.8 °F 30.00 in Calm     50 % 0 in
18:24 53.4 °F 36.2 °F 30.00 in Calm     52 % 0 in
18:29 52.8 °F 36.1 °F 30.01 in Calm     53 % 0 in
18:34 52.2 °F 36 °F 30.00 in Calm     54 % 0 in
18:39 51.4 °F 36.2 °F 30.01 in Calm     56 % 0 in
18:44 50.7 °F 36.5 °F 30.01 in Calm     58 % 0 in
18:49 50.1 °F 35.9 °F 30.01 in Calm     58 % 0 in
18:54 49.3 °F 36 °F 30.01 in Calm     60 % 0 in
18:59 48.7 °F 36.3 °F 30.01 in Calm     62 % 0 in
19:04 48.1 °F 36.1 °F 30.01 in Calm     63 % 0 in
19:09 47.6 °F 36 °F 30.01 in Calm     64 % 0 in
19:14 47.1 °F 35.5 °F 30.01 in Calm     64 % 0 in
19:19 46.6 °F 35.8 °F 30.01 in Calm     66 % 0 in
19:24 46 °F 35.7 °F 30.01 in Calm     67 % 0 in
19:29 45.6 °F 36 °F 30.01 in Calm     69 % 0 in
19:34 45.2 °F 35.6 °F 30.01 in Calm     69 % 0 in
19:39 44.8 °F 35.2 °F 30.02 in Calm     69 % 0 in
19:44 44.4 °F 35.2 °F 30.02 in Calm     70 % 0 in
19:49 43.9 °F 35.5 °F 30.02 in Calm   1 mph 72 % 0 in
19:55 43.5 °F 35.4 °F 30.02 in Calm   1 mph 73 % 0 in
19:59 43.2 °F 35.1 °F 30.03 in Calm     73 % 0 in
20:04 42.9 °F 35.2 °F 30.03 in Calm     74 % 0 in
20:09 42.5 °F 35.1 °F 30.03 in Calm     75 % 0 in
20:14 42.2 °F 35.2 °F 30.03 in Calm     76 % 0 in
20:19 41.9 °F 35.2 °F 30.03 in Calm     77 % 0 in
20:24 41.6 °F 34.9 °F 30.03 in Calm     77 % 0 in
20:29 41.5 °F 35.2 °F 30.03 in Calm     78 % 0 in
20:34 41.2 °F 34.9 °F 30.03 in Calm     78 % 0 in
20:39 41 °F 34.7 °F 30.03 in Calm     78 % 0 in
20:44 40.8 °F 34.5 °F 30.03 in Calm     78 % 0 in
20:49 40.5 °F 34.5 °F 30.03 in Calm     79 % 0 in
20:54 40.2 °F 34.5 °F 30.03 in Calm     80 % 0 in
20:59 40 °F 34.3 °F 30.03 in Calm     80 % 0 in
21:04 39.7 °F 34.3 °F 30.03 in Calm     81 % 0 in
21:09 39.5 °F 34.2 °F 30.03 in Calm     81 % 0 in
21:14 39.2 °F 33.9 °F 30.02 in Calm     81 % 0 in
21:19 39 °F 33.7 °F 30.02 in Calm     81 % 0 in
21:25 38.7 °F 33.7 °F 30.03 in Calm     82 % 0 in
21:29 38.6 °F 33.9 °F 30.03 in Calm     83 % 0 in
21:34 38.4 °F 33.7 °F 30.03 in Calm     83 % 0 in
21:39 38.2 °F 33.8 °F 30.03 in Calm     84 % 0 in
21:44 38 °F 33.6 °F 30.03 in Calm     84 % 0 in
21:49 37.8 °F 33.4 °F 30.04 in Calm     84 % 0 in
21:54 37.7 °F 33.6 °F 30.04 in Calm     85 % 0 in
21:59 37.5 °F 33.4 °F 30.04 in Calm     85 % 0 in
22:04 37.3 °F 33.2 °F 30.04 in Calm     85 % 0 in
22:09 37.2 °F 33.1 °F 30.04 in Calm     85 % 0 in
22:14 37 °F 33.2 °F 30.04 in Calm     86 % 0 in
22:19 36.9 °F 33.1 °F 30.03 in Calm     86 % 0 in
22:24 36.7 °F 32.9 °F 30.04 in Calm     86 % 0 in
22:29 36.5 °F 32.7 °F 30.04 in Calm     86 % 0 in
22:34 36.4 °F 32.9 °F 30.04 in Calm     87 % 0 in
22:39 36.4 °F 32.9 °F 30.04 in Calm     87 % 0 in
22:44 36.3 °F 32.8 °F 30.04 in Calm     87 % 0 in
22:49 36.1 °F 32.6 °F 30.04 in Calm     87 % 0 in
22:55 36 °F 32.5 °F 30.04 in Calm     87 % 0 in
22:59 35.9 °F 32.4 °F 30.04 in Calm     87 % 0 in
23:04 35.7 °F 32.2 °F 30.04 in Calm     87 % 0 in
23:09 35.6 °F 32.1 °F 30.04 in Calm     87 % 0 in
23:14 35.4 °F 32.2 °F 30.04 in Calm     88 % 0 in
23:19 35.3 °F 32.1 °F 30.04 in Calm     88 % 0 in
23:24 35.1 °F 31.9 °F 30.04 in Calm     88 % 0 in
23:29 35 °F 31.8 °F 30.04 in Calm     88 % 0 in
23:34 34.8 °F 31.6 °F 30.04 in Calm     88 % 0 in
23:40 34.7 °F 31.8 °F 30.04 in Calm     89 % 0 in
23:44 34.6 °F 31.7 °F 30.04 in Calm     89 % 0 in
23:49 34.6 °F 31.7 °F 30.05 in Calm     89 % 0 in
23:54 34.5 °F 31.6 °F 30.05 in Calm     89 % 0 in
Edina, Minnesota
Compliments of Weather Underground - 4 mb

Script developed by  Jim McMurry - jmcmurry@mwt.net Adapted for the template by  Wim van der Kuil - Leuven-Template.eu

You find our weather info also at:

Weather Underground

Midwestern Weather Network

Citizen Weather Observer Program (CWOP)

HAMweather, WeatherForYou, PWS Weather

Equipment we use:

Weather-station
Davis VP2

Weather-program
Cumulus

Davis VP2

Cumulus